Regional Weather Roundup
Issued by NWS Albany, NY

Home | Current Version | Previous Version | Text Only | Print | Product List | Glossary On
Versions: 1 2 3 4 5 6 7 8 9 10 11 12 13 14 15 16 17 18 19 20 21 22 23 24 25 26 27
000
ASUS41 KALY 302210
RWRALY

NEW YORK STATE HOURLY WEATHER ROUNDUP
NATIONAL WEATHER SERVICE ALBANY NY
600 PM EDT TUE AUG 30 2016

NOTE: "FAIR" INDICATES FEW OR NO CLOUDS BELOW 12,000 FEET WITH NO
SIGNIFICANT WEATHER AND/OR NO OBSTRUCTIONS TO VISIBILITY.

NYZ032-033-038>043-046>054-057>066-NYZ062>081-082-084-302300-
EAST


CITY           SKY/WX    TMP DP  RH WIND       PRES   REMARKS
ALBANY         MOSUNNY   80  54  40 W9        30.05S
GLENS FALLS    SUNNY     79  59  50 SW7       30.02F
POUGHKEEPSIE   SUNNY     82  57  42 SW6       30.03F
NEWBURGH       MOSUNNY   81  61  50 W8        30.07F
MONTGOMERY     SUNNY     82  61  48 SW6       30.05F
WHITE PLAINS   MOSUNNY   80  62  54 SE8       30.05F
ISLIP          MOSUNNY   78  60  53 S8        30.06S
NEW YORK CITY  MOSUNNY   83  60  45 S10       30.04F
CENTRAL PARK   SUNNY     81  61  50 VRB5      30.07F
$$

NYZ005>009-017-018-044>046-055-056-302300-
CENTRAL


CITY           SKY/WX    TMP DP  RH WIND       PRES   REMARKS
FULTON         SUNNY     79  59  50 CALM      30.05F
SYRACUSE       PTSUNNY   80  57  45 W6        30.04F
ROME           SUNNY     78  60  53 W8        30.06F
ELMIRA         CLOUDY    81  58  45 CALM      30.05F
BINGHAMTON     CLOUDY    73  55  53 SW6       30.10F
MONTICELLO     SUNNY     75  55  50 W3        30.11F
$$

NYZ026>034-041>043-087-302300-
NORTH


CITY           SKY/WX    TMP DP  RH WIND       PRES   REMARKS
WATERTOWN      SUNNY     78  58  49 SW7       30.04F
FORT DRUM      NOT AVBL
MASSENA        CLOUDY    76  60  57 SW8       30.01F
SARANAC LAKE   CLOUDY    71  56  58 SW7       30.06F
PLATTSBURGH    CLOUDY    74  62  66 SE6       30.00F
$$

NYZ001>004-010>016-019>021-085-302300-
WEST


CITY           SKY/WX    TMP DP  RH WIND       PRES   REMARKS
NIAGARA FALLS  PTSUNNY   82  51  34 SW13      30.05F
BUFFALO        CLOUDY    78  58  49 SW9       30.06F
DUNKIRK        CLOUDY    76  61  59 W5        30.08S
JAMESTOWN      MOSUNNY   75  59  57 W6        30.12S
WELLSVILLE     CLOUDY    75  57  53 SW3       30.14F
ROCHESTER      PTSUNNY   83  62  49 NW8       30.05S
PENN YAN       CLOUDY    81  54  39 W6        30.07F
$$

             KEY
       WCI = WIND CHILL INDEX
       VSB = VISIBILITY
       HX  = HEAT INDEX
$$




USA.gov is the U.S. government's official web portal to all federal, state and local government web resources and services.